Weather History for Hulett, WY

Change the Weather History Date:

Sunday, October 20, 2013

  Actual Average (KEFC) Record (KEFC)
Temperature  
Mean Temperature 42 °F -  
Max Temperature 48 °F 65 °F 84 °F (1973)
Min Temperature 35 °F 29 °F 16 °F (1987)
Degree Days  
Heating Degree Days 24    
Moisture  
Dew Point 34 °F    
Average Humidity 83    
Maximum Humidity 93    
Minimum Humidity 58    
Precipitation  
Precipitation 0.00 in - - ()
Sea Level Pressure  
Sea Level Pressure 29.98 in    
Wind  
Wind Speed 10 mph (WNW)    
Max Wind Speed 20 mph    
Max Gust Speed 31 mph    
Visibility 10 miles    
Events Rain    
Averages and records for this station are not official NWS values.
T = Trace of Precipitation, MM = Missing Value Source: NWS Daily Summary

Daily Weather History Graph

Daily Weather History Graph

Search for Another Location

Airport:

Trip Planner

Search our weather history database for the weather conditions in past years. The results will help you decide how hot, cold, wet, or windy it might be!

Date:

Astronomy

Oct. 20, 2013 Rise Set
Actual Time 7:20 AM MDT 6:04 PM MDT
Civil Twilight 6:50 AM MDT 6:34 PM MDT
Nautical Twilight 6:16 AM MDT 7:08 PM MDT
Astronomical Twilight 5:43 AM MDT 7:42 PM MDT
Moon 7:10 PM MDT (10/20) 9:05 AM MDT (10/20)
Length of Visible Light 11h 43m
Length of Day
10h 44m
Full, 97% of the Moon is Illuminated
Oct 20
Full
Oct 26
Last Quarter
Nov 3
New
Nov 9
First Quarter
Nov 17
Full

Hourly Weather History & Observations

Time (MDT) Temp. Windchill Dew Point Humidity Pressure Visibility Wind Dir Wind Speed Gust Speed Precip Events Conditions
12:15 AM 48.2 °F - 33.8 °F 58% 29.87 in 10.0 mi WNW 12.7 mph 19.6 mph N/A   Overcast
12:35 AM 46.4 °F 41.5 °F 33.8 °F 62% 29.88 in 10.0 mi WNW 10.4 mph - N/A   Overcast
12:55 AM 46.4 °F 42.9 °F 35.6 °F 66% 29.88 in 10.0 mi West 6.9 mph - N/A Rain Light Rain
1:15 AM 46.4 °F 43.5 °F 35.6 °F 66% 29.87 in 10.0 mi West 5.8 mph - N/A   Overcast
1:35 AM 44.6 °F 39.7 °F 35.6 °F 71% 29.87 in 10.0 mi West 9.2 mph - N/A   Overcast
1:55 AM 44.6 °F 39.2 °F 35.6 °F 71% 29.87 in 10.0 mi West 10.4 mph 16.1 mph N/A   Overcast
2:15 AM 44.6 °F 39.7 °F 35.6 °F 71% 29.87 in 10.0 mi West 9.2 mph 17.3 mph N/A   Overcast
2:35 AM 44.6 °F 39.2 °F 35.6 °F 71% 29.88 in 10.0 mi West 10.4 mph 19.6 mph N/A   Mostly Cloudy
2:55 AM 42.8 °F 35.8 °F 35.6 °F 76% 29.88 in 10.0 mi West 13.8 mph 18.4 mph N/A   Scattered Clouds
3:15 AM 42.8 °F 36.6 °F 35.6 °F 76% 29.88 in 10.0 mi West 11.5 mph 16.1 mph N/A   Scattered Clouds
3:35 AM 42.8 °F 36.6 °F 35.6 °F 76% 29.88 in 10.0 mi West 11.5 mph 20.7 mph N/A   Mostly Cloudy
3:55 AM 42.8 °F 36.6 °F 35.6 °F 76% 29.88 in 10.0 mi West 11.5 mph 20.7 mph N/A   Mostly Cloudy
4:15 AM 42.8 °F 37.0 °F 35.6 °F 76% 29.89 in 10.0 mi West 10.4 mph 18.4 mph N/A Rain Rain
4:35 AM 42.8 °F 37.5 °F 35.6 °F 76% 29.89 in 10.0 mi West 9.2 mph 20.7 mph N/A   Overcast
4:55 AM 41.0 °F 35.2 °F 35.6 °F 81% 29.89 in 10.0 mi West 9.2 mph - N/A   Mostly Cloudy
5:15 AM 41.0 °F 35.2 °F 35.6 °F 81% 29.89 in 10.0 mi West 9.2 mph - N/A   Overcast
5:35 AM 41.0 °F 33.5 °F 37.4 °F 87% 29.90 in 10.0 mi West 13.8 mph 18.4 mph N/A Rain Light Rain
5:55 AM 41.0 °F 35.2 °F 35.6 °F 81% 29.91 in 10.0 mi WNW 9.2 mph 20.7 mph N/A Rain Light Rain
6:15 AM 41.0 °F 34.3 °F 35.6 °F 81% 29.91 in 10.0 mi NW 11.5 mph 18.4 mph N/A Rain Light Rain
6:35 AM 41.0 °F 37.1 °F 35.6 °F 81% 29.92 in 10.0 mi WNW 5.8 mph 17.3 mph N/A   Overcast
6:55 AM 41.0 °F 34.7 °F 35.6 °F 81% 29.92 in 10.0 mi WNW 10.4 mph 18.4 mph N/A   Overcast
7:15 AM 41.0 °F 35.2 °F 33.8 °F 76% 29.92 in 10.0 mi WNW 9.2 mph 20.7 mph N/A   Overcast
7:35 AM 41.0 °F 33.5 °F 33.8 °F 76% 29.93 in 10.0 mi NNW 13.8 mph 20.7 mph N/A   Overcast
7:55 AM 41.0 °F 35.2 °F 33.8 °F 76% 29.93 in 10.0 mi NW 9.2 mph 24.2 mph N/A   Overcast
8:15 AM 41.0 °F 34.3 °F 33.8 °F 76% 29.94 in 10.0 mi NW 11.5 mph 23.0 mph N/A   Overcast
8:35 AM 37.4 °F 27.5 °F 35.6 °F 93% 29.96 in 2.5 mi NNW 18.4 mph 28.8 mph N/A Rain Light Rain
8:55 AM 37.4 °F 27.8 °F 35.6 °F 93% 29.97 in 10.0 mi NW 17.3 mph 23.0 mph N/A   Overcast
9:15 AM 37.4 °F 27.8 °F 33.8 °F 87% 29.98 in 10.0 mi NNW 17.3 mph 27.6 mph N/A   Overcast
9:35 AM 37.4 °F 27.2 °F 33.8 °F 87% 29.99 in 10.0 mi NNW 19.6 mph 31.1 mph N/A   Overcast
9:55 AM 37.4 °F 27.8 °F 33.8 °F 87% 29.99 in 7.0 mi NNW 17.3 mph 20.7 mph N/A   Drizzle
10:15 AM 35.6 °F 25.9 °F 33.8 °F 93% 30.00 in 7.0 mi NNW 16.1 mph 23.0 mph N/A Rain Rain
10:35 AM 35.6 °F 27.5 °F 33.8 °F 93% 30.01 in 10.0 mi NW 11.5 mph 20.7 mph N/A Rain Light Rain
10:55 AM 35.6 °F 28.0 °F 33.8 °F 93% 30.01 in 7.0 mi NNW 10.4 mph 16.1 mph N/A   Light Drizzle
11:15 AM 37.4 °F 31.4 °F 33.8 °F 87% 30.01 in 10.0 mi NW 8.1 mph - N/A   Overcast
11:35 AM 37.4 °F 30.3 °F 33.8 °F 87% 30.01 in 10.0 mi NNW 10.4 mph 17.3 mph N/A   Overcast
11:55 AM 37.4 °F 29.8 °F 33.8 °F 87% 30.02 in 10.0 mi NNW 11.5 mph - N/A Rain Light Rain
12:15 PM 37.4 °F 31.4 °F 33.8 °F 87% 30.02 in 10.0 mi NNW 8.1 mph - N/A Rain Light Rain
12:35 PM 37.4 °F 29.8 °F 33.8 °F 87% 30.03 in 10.0 mi NNW 11.5 mph 19.6 mph N/A   Overcast
12:55 PM 41.0 °F 34.7 °F 33.8 °F 76% 30.02 in 10.0 mi WNW 10.4 mph - N/A   Overcast
1:15 PM 41.0 °F 33.1 °F 32.0 °F 70% 30.01 in 7.0 mi NNW 15.0 mph 21.9 mph N/A   Drizzle
1:35 PM 39.2 °F 32.5 °F 33.8 °F 81% 30.01 in 10.0 mi NNW 10.4 mph - N/A   Overcast
1:55 PM 41.0 °F 35.2 °F 33.8 °F 76% 30.01 in 10.0 mi NW 9.2 mph - N/A Rain Light Rain
2:15 PM 37.4 °F 30.8 °F 35.6 °F 93% 30.01 in 4.0 mi NNW 9.2 mph - N/A Rain Light Rain
2:35 PM 37.4 °F 28.9 °F 33.8 °F 87% 30.01 in 10.0 mi NNW 13.8 mph 17.3 mph N/A   Overcast
2:55 PM 39.2 °F 33.6 °F 35.6 °F 87% 30.01 in 7.0 mi NNW 8.1 mph - N/A Rain Light Rain
3:15 PM 37.4 °F 31.4 °F 33.8 °F 87% 30.01 in 10.0 mi North 8.1 mph - N/A Rain Light Rain
3:35 PM 39.2 °F 31.6 °F 33.8 °F 81% 30.01 in 10.0 mi North 12.7 mph 17.3 mph N/A Rain Light Rain
3:55 PM 41.0 °F 35.2 °F 35.6 °F 81% 30.02 in 10.0 mi North 9.2 mph - N/A   Overcast
4:15 PM 41.0 °F 36.4 °F 33.8 °F 76% 30.02 in 10.0 mi NNW 6.9 mph 18.4 mph N/A   Overcast
4:35 PM 37.4 °F 31.4 °F 35.6 °F 93% 30.03 in 7.0 mi NNW 8.1 mph - N/A Rain Light Rain
4:55 PM 37.4 °F 32.8 °F 33.8 °F 87% 30.03 in 10.0 mi NNW 5.8 mph - N/A   Overcast
5:15 PM 37.4 °F - 33.8 °F 87% 30.03 in 10.0 mi Calm Calm - N/A   Overcast
5:35 PM 37.4 °F - 33.8 °F 87% 30.03 in 10.0 mi Calm Calm - N/A   Overcast
5:55 PM 37.4 °F 34.9 °F 33.8 °F 87% 30.04 in 10.0 mi North 3.5 mph - N/A   Overcast
6:15 PM 37.4 °F 33.8 °F 33.8 °F 87% 30.04 in 5.0 mi NNW 4.6 mph - N/A Rain Rain
6:35 PM 37.4 °F - 33.8 °F 87% 30.05 in 10.0 mi Calm Calm - N/A   Overcast
6:55 PM 37.4 °F - 35.6 °F 93% 30.05 in 10.0 mi Calm Calm - N/A   Overcast
7:15 PM 37.4 °F 32.8 °F 33.8 °F 87% 30.05 in 7.0 mi West 5.8 mph - N/A Rain Light Rain
7:35 PM 37.4 °F 34.9 °F 33.8 °F 87% 30.05 in 10.0 mi West 3.5 mph - N/A   Overcast
7:55 PM 37.4 °F 32.8 °F 33.8 °F 87% 30.05 in 10.0 mi WSW 5.8 mph - N/A   Overcast
8:15 PM 37.4 °F - 33.8 °F 87% 30.05 in 10.0 mi Calm Calm - N/A   Mostly Cloudy
8:35 PM 35.6 °F 30.7 °F 33.8 °F 93% 30.06 in 10.0 mi WSW 5.8 mph - N/A   Overcast
8:55 PM 37.4 °F 32.1 °F 33.8 °F 87% 30.06 in 10.0 mi WSW 6.9 mph - N/A   Overcast
9:15 PM 37.4 °F 32.1 °F 33.8 °F 87% 30.06 in 10.0 mi SW 6.9 mph - N/A   Overcast
9:35 PM 37.4 °F 31.4 °F 33.8 °F 87% 30.05 in 10.0 mi WSW 8.1 mph - N/A   Overcast
9:55 PM 37.4 °F 32.1 °F 33.8 °F 87% 30.06 in 10.0 mi WSW 6.9 mph - N/A   Overcast
10:15 PM 37.4 °F 32.1 °F 33.8 °F 87% 30.06 in 10.0 mi WSW 6.9 mph - N/A   Overcast
10:35 PM 37.4 °F 32.1 °F 33.8 °F 87% 30.06 in 10.0 mi WSW 6.9 mph - N/A   Overcast
10:55 PM 37.4 °F 32.8 °F 33.8 °F 87% 30.06 in 10.0 mi WSW 5.8 mph - N/A   Overcast
11:15 PM 37.4 °F 31.4 °F 33.8 °F 87% 30.06 in 10.0 mi WSW 8.1 mph - N/A   Overcast
11:35 PM 37.4 °F 32.1 °F 33.8 °F 87% 30.06 in 10.0 mi WSW 6.9 mph - N/A   Overcast
11:55 PM 37.4 °F 32.1 °F 33.8 °F 87% 30.06 in 10.0 mi WSW 6.9 mph - N/A   Overcast